Regional Weather Roundup
Issued by NWS

Home | Current Version | Previous Version | Text Only | Print | Product List | Glossary On
Versions: 1 2 3 4 5 6 7 8 9 10 11 12 13 14 15 16 17 18 19 20 21 22 23 24 25 26 27 28 29 30 31 32 33 34 35 36 37 38 39 40 41 42 43 44 45 46 47 48 49 50
000
ASUS43 KMKX 210620
RWRWI

WISCONSIN REGIONAL WEATHER ROUNDUP
NATIONAL WEATHER SERVICE MILWAUKEE/SULLIVAN WI
100 AM CDT SAT APR 21 2018

NOTE: "FAIR" INDICATES FEW OR NO CLOUDS BELOW 12,000 FEET WITH NO
SIGNIFICANT WEATHER AND/OR OBSTRUCTIONS TO VISIBILITY.

WIZ001-002-006>008-014>016-023>028-210700-
NORTHWEST WISCONSIN

CITY           SKY/WX    TMP DP  RH WIND       PRES   REMARKS
SUPERIOR ARPT  FAIR      37  21  53 SW6       30.41S WCI  32
6HR MIN TEMP:  37; 6HR MAX TEMP:  56;

ASHLAND        FAIR      39  19  44 SW8       30.42S WCI  33
6HR MIN TEMP:  32; 6HR MAX TEMP:  50;

HAYWARD        FAIR      28  21  75 CALM      30.42F
6HR MIN TEMP:  27; 6HR MAX TEMP:  52;

SIREN          FAIR      29  21  72 CALM      30.42F
6HR MIN TEMP:  29; 6HR MAX TEMP:  51;

CUMBERLAND     FAIR      30  19  64 CALM      30.42S
RICE LAKE      FAIR      29  26  86 CALM      30.44F
6HR MIN TEMP:  29; 6HR MAX TEMP:  49;

CHETEK         FAIR      29  24  80 CALM      30.43S
6HR MIN TEMP:  29; 6HR MAX TEMP:  47;

LADYSMITH      FAIR      30  24  80 CALM      30.44S
6HR MIN TEMP:  30; 6HR MAX TEMP:  52;

EAU CLAIRE     FAIR      32  22  66 CALM      30.42F
6HR MIN TEMP:  31; 6HR MAX TEMP:  51;

MENOMONIE      FAIR      36  24  63 CALM      30.43S
6HR MIN TEMP:  36; 6HR MAX TEMP:  52;

NEW RICHMOND   FAIR      31  26  80 CALM      30.43F
6HR MIN TEMP:  31; 6HR MAX TEMP:  49;

OSCEOLA        FAIR      31  27  87 CALM      30.45F
6HR MIN TEMP:  31; 6HR MAX TEMP:  50;

$$

WIZ003>005-009-010-017-018-210700-
NORTH CENTRAL WISCONSIN

CITY           SKY/WX    TMP DP  RH WIND       PRES   REMARKS
MANITOWISH WTR FAIR      29  20  68 CALM      30.40F
6HR MIN TEMP:  28; 6HR MAX TEMP:  52;

ARBOR VITAE    FAIR      32  22  66 CALM      30.41S
6HR MIN TEMP:  32; 6HR MAX TEMP:  52;

WOODRUFF       FAIR      32  22  66 CALM      30.41S
6HR MIN TEMP:  32; 6HR MAX TEMP:  52;

RHINELANDER    FAIR      31  18  58 W3        30.42S
6HR MIN TEMP:  30; 6HR MAX TEMP:  51;

EAGLE RIVER    FAIR      28  20  72 CALM      30.40S
6HR MIN TEMP:  29; 6HR MAX TEMP:  53;

LAND O LAKES   FAIR      26  19  74 CALM      30.42S
6HR MIN TEMP:  26; 6HR MAX TEMP:  55;

PHILLIPS       FAIR      27  22  84 CALM      30.41S
6HR MIN TEMP:  27; 6HR MAX TEMP:  51;

TOMAHAWK       FAIR      27  18  70 CALM      30.43S
6HR MIN TEMP:  26; 6HR MAX TEMP:  50;

MEDFORD        FAIR      29  20  69 CALM      30.41F
6HR MIN TEMP:  29; 6HR MAX TEMP:  47;

MERRILL          N/A     26  21  79 CALM      30.44S
6HR MIN TEMP:  28; 6HR MAX TEMP:  50;

$$

WIZ029-030-035-036-043>047-210700-
CENTRAL WISCONSIN

CITY           SKY/WX    TMP DP  RH WIND       PRES   REMARKS
WAUSAU         FAIR      30  20  66 CALM      30.42R
6HR MIN TEMP:  30; 6HR MAX TEMP:  50;

MOSINEE        FAIR      36  14  41 CALM      30.44S
MARSHFIELD     FAIR      36  18  48 CALM      30.41S
6HR MIN TEMP:  31; 6HR MAX TEMP:  50;

STEVENS POINT  FAIR      28  18  65 CALM      30.44S
6HR MIN TEMP:  25; 6HR MAX TEMP:  49;

WAUPACA        FAIR      31  24  72 CALM      30.44S
6HR MIN TEMP:  32; 6HR MAX TEMP:  53;

WAUTOMA        FAIR      28  24  85 CALM      30.46R
6HR MIN TEMP:  28; 6HR MAX TEMP:  52;

WISC RAPIDS    FAIR      29  17  61 CALM      30.44R
6HR MIN TEMP:  29; 6HR MAX TEMP:  54;

CAMP DOUGLAS   FAIR      26  22  82 CALM      30.44R
6HR MIN TEMP:  25; 6HR MAX TEMP:  50;

$$

WIZ011>013-019>022-031-037>040-048>050-210700-
NORTHEAST WISCONSIN

CITY           SKY/WX    TMP DP  RH WIND       PRES   REMARKS
ANTIGO         FAIR      31  24  74 CALM      30.42S
6HR MIN TEMP:  30; 6HR MAX TEMP:  44;

SHAWANO        FAIR      31  22  70 CALM      30.43S
6HR MIN TEMP:  32; 6HR MAX TEMP:  54;

OCONTO         FAIR      27  21  76 CALM      30.44R
6HR MIN TEMP:  27; 6HR MAX TEMP:  51;

STURGEON BAY   FAIR      39  23  52 CALM      30.45R
6HR MIN TEMP:  38; 6HR MAX TEMP:  49;

GREEN BAY      FAIR      32  24  72 CALM      30.44S
6HR MIN TEMP:  29; 6HR MAX TEMP:  49;

MANITOWOC      FAIR      32  27  81 CALM      30.45S
6HR MIN TEMP:  31; 6HR MAX TEMP:  48;

APPLETON       FAIR      37  14  38 CALM      30.42S
CLINTONVILLE   FAIR      31  20  63 CALM      30.43S
6HR MIN TEMP:  31; 6HR MAX TEMP:  50;

OSHKOSH        FAIR      35  20  54 SW3       30.44R
6HR MIN TEMP:  32; 6HR MAX TEMP:  47;

$$

WIZ032>034-041-042-053>061-210700-
SOUTHWEST WISCONSIN

CITY           SKY/WX    TMP DP  RH WIND       PRES   REMARKS
LA CROSSE      FAIR      36  28  73 CALM      30.44S
6HR MIN TEMP:  35; 6HR MAX TEMP:  53;

SPARTA         FAIR      28  22  79 CALM      30.45S
6HR MIN TEMP:  28; 6HR MAX TEMP:  52;

VIROQUA        FAIR      41  24  50 E3        30.43R
6HR MIN TEMP:  40; 6HR MAX TEMP:  48;

BOSCOBEL       FAIR      33  29  85 CALM      30.44S FOG
6HR MIN TEMP:  33; 6HR MAX TEMP:  57;

PRAIRIE DU CHI FAIR      37  30  75 CALM      30.43S
6HR MIN TEMP:  37; 6HR MAX TEMP:  56;

PLATTEVILLE    FAIR      43  29  57 NE8       30.42R
6HR MIN TEMP:  40; 6HR MAX TEMP:  55;

$$

WIZ056-057-062-063-064-067-068-210700-
SOUTH CENTRAL WISCONSIN

CITY           SKY/WX    TMP DP  RH WIND       PRES   REMARKS
REEDSBURG      FAIR      32  25  75 CALM      30.44S
6HR MIN TEMP:  32; 6HR MAX TEMP:  53;

BARABOO/DELLS  FAIR      32  20  63 CALM      30.44R
6HR MIN TEMP:  31; 6HR MAX TEMP:  51;

LONE ROCK      FAIR      35  30  82 CALM      30.44R
6HR MIN TEMP:  33; 6HR MAX TEMP:  56;

MINERAL POINT  FAIR      45  27  49 E5        30.42R
MADISON        FAIR      32  26  78 CALM      30.44S
6HR MIN TEMP:  32; 6HR MAX TEMP:  51;

MIDDLETON      FAIR      33  30  88 CALM      30.44S
6HR MIN TEMP:  33; 6HR MAX TEMP:  53;

WATERTOWN      FAIR      32  23  71 CALM      30.45S
6HR MIN TEMP:  31; 6HR MAX TEMP:  51;

MONROE         FAIR      43  21  42 SE7       30.42S
JANESVILLE     FAIR      37  28  70 NE3       30.44S
$$

WIZ051-052-058>065-066-070>072-210700-
SOUTHEAST WISCONSIN

CITY           SKY/WX    TMP DP  RH WIND       PRES   REMARKS
MILWAUKEE      FAIR      37  20  50 CALM      30.45S
6HR MIN TEMP:  37; 6HR MAX TEMP:  48;

WAUKESHA       FAIR      32  21  64 CALM      30.46S
MILWAUKEE/TIMM FAIR      32  23  69 CALM      30.46S
RACINE         FAIR      34  24  67 CALM      30.46S
6HR MIN TEMP:  33; 6HR MAX TEMP:  48;

BURLINGTON     FAIR      30  25  81 CALM      30.44F
6HR MIN TEMP:  30; 6HR MAX TEMP:  54;

KENOSHA        FAIR      34  20  56 CALM      30.45S
6HR MIN TEMP:  33; 6HR MAX TEMP:  48;

FOND DU LAC    FAIR      29  20  69 S3        30.44S
6HR MIN TEMP:  28; 6HR MAX TEMP:  51;

SHEBOYGAN      FAIR      30  28  92 CALM      30.44S
6HR MIN TEMP:  30; 6HR MAX TEMP:  49;

WEST BEND      FAIR      32  28  86 W3        30.45R
JUNEAU         FAIR      38  19  45 CALM      30.46R
6HR MIN TEMP:  36; 6HR MAX TEMP:  50;

$$

LSZ147-162-210700-
LAKE SUPERIOR

STATION/POSITION TIME  TEMP    WIND        PRES    WAVE
                       AIR SEA DIR/SP/G            HT/PER
                 (UTC) (F)     (DEG/KT/KT) (MB)    (FT/S)
DEVILS ISLAND    0600   41     230/  9/  9 1030.3R
SAXON HARBOR     0530   31     200/  2/  6 1029.1S
$$

LMZ867-665-643>646-210700-
LAKE MICHIGAN

STATION/POSITION TIME  TEMP    WIND        PRES    W


USA.gov is the U.S. government's official web portal to all federal, state and local government web resources and services.